Weather History for Gastonia, NC

Change the Weather History Date:

Tuesday, November 27, 2012

  Actual Average (KCLT) Record (KCLT)
Temperature  
Mean Temperature 52 °F 47 °F  
Max Temperature 57 °F 58 °F 77 °F (2001)
Min Temperature 46 °F 36 °F 18 °F (1903)
Degree Days  
Heating Degree Days 14 18  
Month to date heating degree days 375  
Since 1 July heating degree days 581  
Cooling Degree Days 0 0  
Month to date cooling degree days 0  
Year to date cooling degree days 1513  
Growing Degree Days 2 (Base 50)    
Moisture  
Dew Point 37 °F    
Average Humidity 61    
Maximum Humidity 88    
Minimum Humidity 41    
Precipitation  
Precipitation 0.00 in 0.11 in 1.54 in (1993)
Month to date precipitation 2.80  
Year to date precipitation 38.04  
Snow  
Snow 0.00 in 0.00 in T in (1951)
Month to date snowfall 0.1  
Since 1 July snowfall 0.1  
Since 1 September snowfall 0.1  
Snow Depth -    
Sea Level Pressure  
Sea Level Pressure 30.15 in    
Wind  
Wind Speed 3 mph (NE)    
Max Wind Speed 10 mph    
Max Gust Speed -    
Visibility 10 miles    
Events      
T = Trace of Precipitation, MM = Missing Value Source: NWS Daily Summary

Daily Weather History Graph

Daily Weather History Graph

Search for Another Location

Airport:

Trip Planner

Search our weather history database for the weather conditions in past years. The results will help you decide how hot, cold, wet, or windy it might be!

Date:

Astronomy

Nov. 27, 2012 Rise Set
Actual Time 7:11 AM EST 5:13 PM EST
Civil Twilight 6:43 AM EST 5:40 PM EST
Nautical Twilight 6:12 AM EST 6:12 PM EST
Astronomical Twilight 5:42 AM EST 6:42 PM EST
Moon 4:43 PM EST (11/27) 6:16 AM EST (11/27)
Length of Visible Light 10h 56m
Length of Day
10h 01m
Waxing Gibbous, 99% of the Moon is Illuminated
Nov 27
Waxing Gibbous
Nov 28
Full
Dec 6
Last Quarter
Dec 13
New
Dec 20
First Quarter

Hourly Weather History & Observations

Time (EST) Temp. Windchill Dew Point Humidity Pressure Visibility Wind Dir Wind Speed Gust Speed Precip Events Conditions
12:54 AM 46.0 °F - 30.9 °F 56% 30.14 in 10.0 mi Calm Calm - N/A   Mostly Cloudy
1:54 AM 51.1 °F - 28.0 °F 41% 30.14 in 10.0 mi Variable 3.5 mph - N/A   Overcast
2:54 AM 50.0 °F - 28.0 °F 43% 30.14 in 10.0 mi Calm Calm - N/A   Overcast
3:54 AM 50.0 °F - 28.9 °F 44% 30.12 in 10.0 mi Calm Calm - N/A   Overcast
4:54 AM 46.0 °F 44.8 °F 30.9 °F 56% 30.12 in 10.0 mi SSW 3.5 mph - N/A   Mostly Cloudy
5:54 AM 50.0 °F - 28.9 °F 44% 30.13 in 10.0 mi SW 3.5 mph - N/A   Overcast
6:54 AM 48.9 °F - 30.0 °F 48% 30.13 in 10.0 mi Calm Calm - N/A   Overcast
7:54 AM 48.9 °F - 30.0 °F 48% 30.13 in 10.0 mi Calm Calm - N/A   Overcast
8:54 AM 51.1 °F - 30.9 °F 46% 30.15 in 10.0 mi Calm Calm - N/A   Mostly Cloudy
9:54 AM 53.1 °F - 33.1 °F 47% 30.16 in 10.0 mi SSW 3.5 mph - N/A   Overcast
10:54 AM 55.0 °F - 33.1 °F 43% 30.16 in 10.0 mi Variable 4.6 mph - N/A   Overcast
11:34 AM 55.4 °F - 35.6 °F 47% 30.14 in 10.0 mi Calm Calm - N/A   Overcast
11:54 AM 55.9 °F - 36.0 °F 47% 30.14 in 10.0 mi Variable 3.5 mph - N/A   Overcast
12:54 PM 57.0 °F - 44.1 °F 62% 30.11 in 10.0 mi Variable 4.6 mph - 0.00 in   Overcast
1:54 PM 57.0 °F - 45.0 °F 64% 30.09 in 10.0 mi SW 3.5 mph - N/A   Overcast
3:54 PM 54.0 °F - 46.9 °F 77% 30.11 in 10.0 mi ENE 3.5 mph - 0.00 in   Overcast
4:52 PM 51.8 °F - 48.2 °F 88% 30.12 in 10.0 mi Calm Calm - 0.01 in   Overcast
5:54 PM 52.0 °F - 46.9 °F 83% 30.14 in 10.0 mi NE 5.8 mph - N/A   Overcast
6:54 PM 50.0 °F - 42.1 °F 74% 30.16 in 10.0 mi NE 6.9 mph - N/A   Overcast
7:54 PM 50.0 °F - 41.0 °F 71% 30.18 in 10.0 mi NNE 6.9 mph - N/A   Overcast
8:54 PM 48.9 °F - 42.1 °F 77% 30.19 in 10.0 mi NE 9.2 mph - N/A   Overcast
9:54 PM 48.9 °F - 43.0 °F 80% 30.21 in 10.0 mi NE 8.1 mph - N/A   Overcast
10:54 PM 48.0 °F - 44.1 °F 86% 30.22 in 10.0 mi NE 10.4 mph - N/A   Overcast
11:54 PM 48.0 °F - 44.1 °F 86% 30.23 in 8.0 mi NE 8.1 mph - N/A   Overcast